Vertical_Velocity
0 -1 0 1 -0 1 1 1 2 -1 0 0 1 -0 -0 -0 -1 -2 -2 -0 0 -1 -3 -2 -1 -2 -2 -2 -1 -2 -2 -1 -0 -0 -1 -1 -0 -1 -2 -0 -1 -0 0
2 4 2 -0 -2 -1 -1 2 1 0 -0 -0 -0 -1 -1 -1 -1 -1 0 -0 0 0 -0 -3 -1 -2 -1 -1 -1 -1 -1 -0 -0 0 -1 -0 0 -1 -1 -2 -1 -1 -2
-2 2 4 2 1 1 -0 0 -1 -2 -1 1 0 1 -0 -0 -2 -2 -1 -1 0 -1 -1 -2 -0 -1 -0 -1 -0 -1 -1 -2 -1 0 1 0 -0 -1 -1 -2 -1 -1 -2
3 -7 -0 2 -1 3 0 -0 -2 -2 -1 -2 -2 -2 -2 -1 -2 -2 -2 -2 -0 1 -1 -1 -1 -0 -1 -1 -1 -1 0 0 -0 -1 -1 -0 -1 -2 -0 -2 0 0 -1
13 -1 1 7 2 -1 -1 1 -2 0 1 -2 -2 -2 0 -2 -1 -1 -1 -3 -2 0 -2 -1 -1 -1 -1 -0 -0 -1 -1 -0 -1 -0 -1 -1 -1 -1 -0 -2 -1 -2 -1
-5 -2 -2 -2 4 -2 4 -3 6 -5 0 0 1 -2 -2 0 -1 -1 -2 -2 -2 -1 -3 -3 -1 -1 -2 -1 -0 0 -0 -1 -2 -2 -1 -1 -1 -1 -0 -1 -1 -2 -2
5 -4 24 -2 -14 20 16 4 -0 -2 -4 3 -1 1 -1 -2 -0 2 1 -1 -2 1 -2 -1 -3 -1 -1 -1 -2 -0 -0 -0 -0 -2 -2 -0 -0 -1 -2 -0 -1 -1 -2
2 4 2 2 18 19 0 1 3 1 -0 -3 2 -2 -1 -1 2 3 -3 -2 -2 -1 -2 -4 -2 0 -0 0 0 0 -0 -1 -1 -2 -3 -1 -1 -0 -1 -0 -1 1 -1
-0 -7 2 -8 -1 -2 1 0 5 6 3 -4 1 -8 -3 3 -2 -0 -3 -1 -3 -1 -1 -6 -1 -1 0 1 0 -2 -1 -0 0 -2 -1 -1 -1 -2 -2 -0 -0 -2 -2
7 -1 -6 -1 -2 -0 3 7 3 35 -1 0 -1 -3 -2 2 -3 -0 -2 -0 -2 -2 -2 -1 -2 -1 -2 -0 1 1 1 -0 -1 -1 0 -2 -2 -2 -1 0 -0 -0 -1
6 8 6 -6 0 -1 3 3 0 -2 7 -3 8 1 -2 -1 -1 1 1 -4 -1 -1 -1 -1 1 -1 -2 1 -1 0 2 1 0 -1 1 -2 -3 -1 0 0 -1 1 -0
3 11 1 6 -2 -6 -10 -8 1 -6 20 -2 -1 0 -2 -6 6 -1 1 -1 -3 -0 0 -0 -3 -0 -5 -1 -1 2 -2 -1 0 -2 -2 -3 -2 -1 -1 -1 -2 0 2
1 -5 90 6 21 -1 21 2 -12 -7 -2 1 -1 8 -1 -1 -0 -1 1 -1 1 -5 2 1 -3 -2 -1 1 3 4 1 -4 -5 1 -3 -1 -2 -2 -1 -1 -3 -1 -1
1 -8 -23 10 37 20 99 18 43 9 4 7 3 1 0 -0 2 -1 1 5 -2 4 4 7 -8 3 -5 -5 -1 -3 1 -2 -1 -1 -1 0 0 -0 0 -1 -2 -2 -1
-21 26 -1 -10 12 4 21 42 130 50 26 68 8 23 -2 -2 4 -0 -1 2 -5 13 8 2 -3 0 -2 -2 -5 -3 0 1 -2 -4 -1 -1 1 2 -0 -2 -3 -2 -2
15 7 -6 -1 -4 6 8 41 30 18 31 -8 65 18 -3 16 13 14 -2 -2 1 2 4 15 -0 -4 -6 1 -2 -3 3 -0 -1 2 0 -1 0 -1 -1 -5 -3 -3 -1
-18 42 4 -7 4 -7 23 13 7 36 10 -1 -9 -2 -2 -2 23 -1 6 6 2 0 3 9 1 -2 -1 -4 2 2 1 -3 -4 -2 -2 -1 1 -0 0 -1 -3 -1 -2
2 0 -6 28 -3 23 20 8 6 -9 7 -3 -7 30 -8 1 1 3 6 0 -4 3 5 1 5 1 -3 3 1 2 0 1 -1 -2 -1 -3 1 -1 2 1 0 -2 -2
7 7 7 5 30 -4 5 -0 -3 0 0 1 1 4 2 4 0 12 0 0 2 1 3 3 2 3 -1 -0 -1 1 -1 0 -2 -2 2 -1 1 2 -1 0 -1 -2 -2
-8 0 -0 5 12 8 6 16 23 15 11 19 17 14 15 10 10 1 2 1 2 -1 4 2 3 5 3 -0 1 -0 0 2 -2 -3 -2 -4 -3 -1 1 -0 -6 -3 1
-3 3 16 12 6 8 -1 0 0 -5 -7 5 1 3 4 4 2 7 10 0 4 2 2 0 -1 1 -1 -3 -1 -2 -2 -3 -1 0 -0 -0 -2 -4 -7 -0 0 3 4
-4 5 9 13 -2 0 11 3 -2 -0 7 7 -2 6 4 9 4 7 8 9 7 -1 1 -2 0 -2 1 -1 -3 -1 -1 2 5 -6 0 -7 3 -1 -1 -2 -1 7 7
0 5 1 -9 -1 5 5 13 5 -2 7 4 1 -4 9 12 4 3 3 2 -3 0 1 -2 1 -1 2 -3 1 3 -4 -1 -3 -2 -0 1 -2 1 -0 1 -3 1 -1
1 4 8 1 -1 -4 4 1 1 7 2 3 1 6 -2 1 -5 -3 -3 -2 -6 -2 -3 -3 3 1 1 3 -2 -3 -3 -2 -3 -5 -2 7 -3 4 -5 -10 2 -7 -2
-1 1 3 -1 4 -1 8 6 -8 -7 -4 -2 -2 -4 -3 -7 -6 -5 5 -1 -0 -1 -0 -0 -1 -4 -1 2 0 -2 1 -0 3 -2 -6 2 -4 -3 4 -1 -1 1 -3
3 -1 2 5 5 4 3 2 1 4 -5 -0 -3 5 -7 -3 -1 0 4 -3 5 1 0 3 0 -0 -3 -1 0 2 2 1 0 -1 -5 -6 3 -4 6 8 4 1 -4
Height
5815 5815 5815 5816 5816 5816 5817 5817 5817 5817 5817 5817 5817 5817 5817 5817 5817 5817 5817 5817 5817 5817 5815 5815 5815 5815 5814 5814 5814 5814 5813 5813 5812 5812 5811 5810 5810 5809 5809 5808 5807 5805 5804
5809 5809 5808 5808 5810 5809 5809 5811 5811 5811 5811 5811 5811 5811 5810 5810 5810 5810 5810 5810 5810 5810 5809 5808 5807 5807 5806 5806 5806 5806 5806 5805 5805 5804 5804 5803 5802 5802 5802 5801 5800 5799 5797
5798 5801 5802 5801 5801 5801 5801 5802 5803 5803 5804 5803 5803 5803 5803 5803 5803 5802 5802 5802 5802 5802 5801 5800 5800 5799 5798 5798 5798 5798 5797 5797 5797 5797 5796 5796 5795 5795 5794 5793 5793 5792 5790
5789 5790 5792 5793 5792 5792 5793 5794 5794 5794 5794 5796 5796 5795 5795 5795 5795 5795 5794 5794 5793 5793 5792 5792 5791 5791 5790 5790 5790 5789 5789 5789 5789 5789 5788 5788 5787 5787 5786 5785 5784 5784 5783
5776 5780 5781 5779 5780 5782 5783 5783 5784 5784 5784 5785 5786 5787 5787 5787 5786 5786 5786 5785 5784 5783 5783 5783 5782 5782 5782 5782 5781 5781 5781 5781 5781 5780 5780 5779 5779 5778 5777 5776 5775 5774 5773
5767 5767 5766 5768 5767 5768 5769 5772 5772 5773 5773 5773 5775 5776 5777 5777 5777 5777 5777 5775 5774 5775 5774 5774 5774 5773 5773 5773 5773 5773 5773 5773 5773 5772 5771 5771 5770 5769 5769 5767 5766 5765 5764
5754 5753 5755 5752 5753 5754 5754 5754 5758 5760 5760 5763 5764 5766 5766 5766 5767 5768 5766 5765 5765 5766 5765 5765 5765 5764 5764 5764 5764 5764 5764 5764 5763 5763 5762 5762 5761 5760 5759 5759 5757 5756 5754
5743 5743 5742 5741 5740 5741 5745 5746 5746 5747 5750 5751 5752 5753 5754 5757 5758 5757 5756 5756 5755 5756 5755 5755 5755 5755 5755 5755 5755 5755 5755 5754 5753 5753 5752 5752 5751 5750 5749 5748 5747 5745 5744
5730 5729 5729 5729 5729 5729 5730 5732 5734 5731 5734 5736 5737 5740 5742 5746 5746 5747 5746 5745 5745 5744 5745 5745 5745 5745 5746 5746 5746 5746 5745 5744 5744 5743 5742 5741 5740 5740 5739 5738 5736 5735 5734
5716 5717 5714 5714 5714 5713 5714 5718 5719 5719 5719 5723 5725 5727 5728 5732 5733 5735 5735 5735 5734 5733 5733 5735 5735 5736 5737 5737 5736 5736 5735 5735 5734 5733 5732 5731 5730 5730 5728 5727 5726 5725 5722
5701 5699 5699 5698 5698 5697 5698 5700 5702 5703 5705 5708 5711 5712 5715 5718 5720 5723 5723 5724 5723 5723 5724 5724 5725 5725 5725 5726 5727 5726 5725 5724 5723 5721 5719 5719 5719 5718 5717 5715 5714 5712 5710
5682 5682 5682 5679 5678 5681 5681 5682 5685 5687 5690 5693 5694 5697 5702 5705 5707 5709 5710 5711 5712 5712 5712 5713 5714 5714 5714 5714 5715 5715 5712 5711 5709 5706 5706 5707 5706 5705 5705 5704 5701 5699 5697
5663 5665 5661 5666 5662 5661 5658 5660 5664 5668 5673 5677 5679 5683 5687 5690 5692 5695 5697 5698 5700 5700 5700 5700 5700 5700 5700 5702 5701 5700 5699 5696 5693 5692 5693 5694 5694 5693 5692 5691 5689 5687 5685
5642 5644 5647 5635 5642 5640 5622 5641 5648 5645 5649 5658 5661 5666 5671 5674 5677 5680 5682 5683 5684 5686 5687 5687 5686 5686 5686 5684 5683 5684 5683 5680 5679 5680 5681 5681 5681 5679 5678 5677 5675 5672 5671
5624 5616 5625 5626 5623 5624 5625 5623 5614 5631 5624 5636 5644 5650 5655 5658 5662 5664 5666 5668 5670 5671 5672 5672 5671 5669 5670 5669 5667 5667 5668 5667 5667 5668 5668 5667 5665 5665 5663 5661 5660 5658 5657
5600 5604 5609 5610 5606 5602 5601 5610 5609 5622 5621 5628 5628 5636 5641 5644 5646 5649 5651 5653 5654 5657 5658 5658 5656 5654 5654 5654 5653 5654 5655 5654 5653 5655 5655 5654 5652 5651 5648 5646 5644 5642 5640
5582 5578 5589 5590 5589 5593 5591 5597 5599 5601 5612 5616 5620 5622 5624 5629 5631 5634 5636 5638 5639 5641 5642 5643 5641 5640 5640 5641 5641 5643 5642 5641 5641 5641 5640 5639 5638 5636 5633 5631 5628 5625 5623
5569 5565 5567 5572 5578 5576 5575 5580 5583 5590 5599 5601 5606 5603 5610 5614 5616 5618 5620 5621 5622 5624 5625 5626 5627 5627 5627 5627 5629 5630 5629 5628 5627 5627 5625 5623 5622 5619 5616 5613 5611 5609 5607
5556 5554 5556 5562 5561 5566 5566 5567 5571 5575 5581 5585 5589 5594 5596 5599 5598 5602 5604 5605 5607 5609 5610 5612 5613 5612 5613 5615 5616 5616 5615 5614 5612 5612 5610 5608 5606 5603 5600 5596 5593 5591 5590
5540 5543 5546 5549 5551 5554 5555 5557 5559 5560 5564 5568 5572 5576 5580 5583 5585 5586 5589 5591 5593 5595 5595 5598 5599 5600 5601 5601 5600 5600 5599 5597 5596 5594 5592 5589 5587 5585 5581 5578 5575 5573 5569
5527 5530 5532 5537 5536 5541 5544 5547 5549 5552 5555 5556 5559 5563 5566 5568 5570 5574 5575 5577 5579 5581 5582 5584 5585 5586 5586 5586 5586 5585 5583 5581 5580 5577 5574 5571 5568 5565 5562 5559 5554 5552 5549
5513 5515 5515 5521 5524 5528 5531 5534 5537 5540 5545 5546 5549 5550 5553 5555 5557 5559 5562 5563 5565 5567 5568 5570 5571 5572 5572 5571 5571 5569 5566 5563 5561 5559 5556 5552 5551 5546 5543 5538 5535 5532 5529
5502 5501 5503 5505 5510 5514 5516 5520 5523 5527 5531 5535 5539 5541 5542 5544 5546 5548 5549 5550 5553 5555 5557 5557 5558 5558 5556 5554 5553 5551 5548 5544 5542 5540 5537 5530 5530 5527 5524 5518 5518 5515 5512
5489 5490 5492 5495 5498 5501 5503 5505 5512 5514 5518 5522 5526 5530 5530 5532 5534 5537 5540 5541 5541 5542 5542 5542 5543 5542 5539 5536 5535 5532 5529 5526 5523 5520 5520 5515 5509 5508 5506 5502 5499 5497 5495
5477 5478 5481 5485 5488 5490 5492 5494 5499 5501 5504 5510 5513 5516 5519 5521 5523 5526 5527 5528 5529 5529 5528 5526 5526 5524 5522 5520 5517 5515 5513 5509 5506 5502 5499 5498 5494 5493 5490 5486 5482 5478 5474
5462 5465 5468 5472 5475 5478 5481 5485 5486 5489 5495 5498 5500 5502 5506 5511 5512 5513 5514 5515 5514 5512 5512 5511 5509 5508 5506 5504 5501 5498 5496 5493 5489 5485 5483 5483 5479 5476 5477 5471 5465 5458 5454